| time (UTC) | temp C | wind direction | speed KPH | gust KPH | rain 1hr cm | rain 24hr cm | rain mn cm | humidity % | barometer mb |
| 20260505040037 | 18 | 144 | 0.0 | 6.4 | 0.00 | 0.00 | 0.00 | 37 | 997.7 |
| 20260505034528 | 19 | 360 | 1.6 | 11.3 | 0.00 | 0.00 | 0.00 | 36 | 997.3 |
| 20260505033055 | 18 | 109 | 1.6 | 6.4 | 0.00 | 0.00 | 0.00 | 36 | 997.1 |
| 20260505031605 | 18 | 360 | 1.6 | 16.1 | 0.00 | 0.00 | 0.00 | 37 | 996.7 |
| 20260505030024 | 19 | 128 | 8.0 | 20.9 | 0.00 | 0.00 | 0.00 | 36 | 996.5 |
| 20260505024524 | 18 | 360 | 1.6 | 19.3 | 0.00 | 0.00 | 0.00 | 38 | 996.6 |
| 20260505023021 | 18 | 360 | 14.5 | 29.0 | 0.00 | 0.00 | 0.00 | 38 | 996.4 |
| 20260505021521 | 18 | 360 | 12.9 | 24.1 | 0.00 | 0.00 | 0.00 | 38 | 996.4 |
| 20260505020020 | 18 | 360 | 14.5 | 27.4 | 0.00 | 0.00 | 0.00 | 38 | 996.3 |
| 20260505014524 | 19 | 360 | 17.7 | 33.8 | 0.00 | 0.00 | 0.00 | 37 | 996.1 |
| 20260505013050 | 21 | 360 | 16.1 | 27.4 | 0.00 | 0.00 | 0.00 | 33 | 995.9 |
| 20260505011556 | 22 | 360 | 14.5 | 20.9 | 0.00 | 0.00 | 0.00 | 30 | 995.9 |
| 20260505010045 | 23 | 280 | 3.2 | 16.1 | 0.00 | 0.00 | 0.00 | 22 | 996.0 |
| 20260505004544 | 23 | 323 | 4.8 | 11.3 | 0.00 | 0.00 | 0.00 | 22 | 996.0 |
| 20260505003042 | 23 | 321 | 6.4 | 16.1 | 0.00 | 0.00 | 0.00 | 22 | 996.2 |
| 20260505001542 | 23 | 286 | 4.8 | 12.9 | 0.00 | 0.00 | 0.00 | 23 | 996.2 |
| 20260505000050 | 23 | 294 | 8.0 | 16.1 | 0.00 | 0.00 | 0.00 | 22 | 996.2 |
| 20260504234546 | 23 | 281 | 8.0 | 19.3 | 0.00 | 0.00 | 0.00 | 23 | 996.3 |
| 20260504233054 | 23 | 267 | 6.4 | 16.1 | 0.00 | 0.00 | 0.00 | 23 | 996.5 |
| 20260504231537 | 23 | 290 | 4.8 | 14.5 | 0.00 | 0.00 | 0.00 | 23 | 996.4 |
| 20260504230036 | 23 | 360 | 14.5 | 22.5 | 0.00 | 0.00 | 0.00 | 23 | 996.5 |
| 20260504224531 | 23 | 286 | 11.3 | 22.5 | 0.00 | 0.00 | 0.00 | 22 | 996.8 |
| 20260504223042 | 23 | 360 | 8.0 | 17.7 | 0.00 | 0.00 | 0.00 | 20 | 996.8 |
| 20260504221527 | 22 | 313 | 6.4 | 19.3 | 0.00 | 0.00 | 0.00 | 22 | 997.0 |
| 20260504220021 | 22 | 277 | 11.3 | 19.3 | 0.00 | 0.00 | 0.00 | 21 | 997.4 |
| 20260504214522 | 22 | 360 | 8.0 | 22.5 | 0.00 | 0.00 | 0.00 | 23 | 997.7 |
| 20260504213027 | 22 | 274 | 14.5 | 22.5 | 0.00 | 0.00 | 0.00 | 26 | 998.0 |
| 20260504211520 | 22 | 244 | 14.5 | 24.1 | 0.00 | 0.00 | 0.00 | 27 | 998.0 |
| 20260504210012 | 22 | 286 | 6.4 | 22.5 | 0.00 | 0.00 | 0.00 | 29 | 998.2 |
| 20260504204528 | 22 | 269 | 9.7 | 22.5 | 0.00 | 0.00 | 0.00 | 27 | 998.4 |
| 20260504203007 | 22 | 360 | 12.9 | 27.4 | 0.00 | 0.00 | 0.00 | 28 | 998.5 |
| 20260504201505 | 21 | 288 | 11.3 | 22.5 | 0.00 | 0.00 | 0.00 | 30 | 998.7 |
| 20260504200002 | 21 | 360 | 16.1 | 25.7 | 0.00 | 0.00 | 0.00 | 31 | 998.8 |
| 20260504194603 | 21 | 360 | 12.9 | 24.1 | 0.00 | 0.00 | 0.00 | 32 | 999.0 |
| 20260504193058 | 21 | 360 | 11.3 | 24.1 | 0.00 | 0.00 | 0.00 | 33 | 999.1 |
| 20260504191559 | 20 | 223 | 11.3 | 20.9 | 0.00 | 0.00 | 0.00 | 34 | 999.4 |
| 20260504190053 | 20 | 276 | 14.5 | 24.1 | 0.00 | 0.00 | 0.00 | 36 | 999.6 |
| 20260504184549 | 20 | 277 | 9.7 | 20.9 | 0.00 | 0.00 | 0.00 | 36 | 999.8 |
| 20260504183046 | 19 | 360 | 9.7 | 20.9 | 0.00 | 0.00 | 0.00 | 38 | 999.9 |
| 20260504181546 | 18 | 360 | 9.7 | 20.9 | 0.00 | 0.00 | 0.00 | 39 | 1000.1 |
| 20260504180039 | 18 | 360 | 11.3 | 24.1 | 0.00 | 0.00 | 0.00 | 41 | 1000.4 |
| 20260504174535 | 17 | 360 | 12.9 | 20.9 | 0.00 | 0.00 | 0.00 | 41 | 1000.5 |
| 20260504173031 | 17 | 301 | 11.3 | 20.9 | 0.00 | 0.00 | 0.00 | 42 | 1000.5 |
| 20260504171529 | 16 | 360 | 17.7 | 25.7 | 0.00 | 0.00 | 0.00 | 42 | 1000.6 |
| 20260504150113 | 12 | 93 | 0.0 | 1.6 | 0.00 | 0.00 | 0.00 | 47 | 1001.2 |
| 20260504081508 | 11 | 132 | 1.6 | 17.7 | 0.00 | 0.00 | 0.00 | 46 | 1000.2 |
| 20260504044604 | 15 | 360 | 11.3 | 17.7 | 0.00 | 0.00 | 0.00 | 36 | 1000.6 |
| 20260504043057 | 16 | 111 | 11.3 | 19.3 | 0.00 | 0.00 | 0.00 | 35 | 1000.6 |
| 20260504041554 | 16 | 113 | 9.7 | 17.7 | 0.00 | 0.00 | 0.00 | 34 | 1000.5 |